This is the latest recevied weather packets stored in our database for station/object W7BTL. If no packets are shown the sender has not sent any weather packets the latest 10 day(s).
| Time | Temp. | Humidity | Pressure | Rain* | Wind** | Luminosity | Snow |
|---|---|---|---|---|---|---|---|
| 1778106159 | 31.67° C | 30% | 1015.9 hPa | 0 mm | - | 780 W/m² | - |
| 1778105857 | 32.22° C | 30% | 1016 hPa | 0 mm | - | 795 W/m² | - |
| 1778105555 | 32.78° C | 29% | 1015.9 hPa | 0 mm | - | 815 W/m² | - |
| 1778105251 | 32.22° C | 31% | 1016.1 hPa | 0 mm | - | 831 W/m² | - |
| 1778104946 | 32.22° C | 30% | 1016.3 hPa | 0 mm | - | 846 W/m² | - |
| 1778104643 | 31.67° C | 30% | 1016.3 hPa | 0 mm | - | 859 W/m² | - |
| 1778104339 | 31.11° C | 32% | 1016.5 hPa | 0 mm | - | 875 W/m² | - |
| 1778104035 | 30° C | 33% | 1016.3 hPa | 0 mm | - | 886 W/m² | - |
| 1778103733 | 29.44° C | 34% | 1016.5 hPa | 0 mm | - | 896 W/m² | - |
| 1778103431 | 30° C | 32% | 1016.3 hPa | 0 mm | - | 913 W/m² | - |
| 1778103128 | 30° C | 33% | 1016.5 hPa | 0 mm | - | 916 W/m² | - |
| 1778102825 | 29.44° C | 34% | 1016.6 hPa | 0 mm | - | 933 W/m² | - |
| 1778102520 | 28.89° C | 34% | 1016.3 hPa | 0 mm | - | 934 W/m² | - |
| 1778102216 | 29.44° C | 33% | 1016.5 hPa | 0 mm | - | 952 W/m² | - |
| 1778101913 | 28.89° C | 34% | 1016.6 hPa | 0 mm | - | 892 W/m² | - |
| 1778101610 | 28.89° C | 35% | 1016.7 hPa | 0 mm | - | 968 W/m² | - |
| 1778101306 | 28.89° C | 34% | 1016.8 hPa | 0 mm | - | 971 W/m² | - |
| 1778101004 | 28.89° C | 35% | 1016.4 hPa | 0 mm | - | 975 W/m² | - |
| 1778100698 | 28.33° C | 36% | 1016.6 hPa | 0 mm | - | 955 W/m² | - |
| 1778100397 | 28.89° C | 35% | 1016.8 hPa | 0 mm | - | 990 W/m² | - |
| 1778100093 | 29.44° C | 35% | 1016.8 hPa | 0 mm | - | 991 W/m² | - |
| 1778099792 | 30° C | 34% | 1016.9 hPa | 0 mm | - | 992 W/m² | - |
| 1778099488 | 30° C | 34% | 1016.9 hPa | 0 mm | - | 1014 W/m² | - |
| 1778099186 | 30.56° C | 33% | 1017 hPa | 0 mm | - | 994 W/m² | - |
| 1778098882 | 31.67° C | 31% | 1017.1 hPa | 0 mm | - | 1015 W/m² | - |
* Rain latest hour (hover to see other rain measurements)
** Current wind speed in m/s (hover to see current wind gust speed)